When you browse on this site, cookies collect data to enhance your experience and personalize the content and advertising you see.
Visit our Privacy Policy to learn more. By continuing to use the site, you agree to this use of cookies and data.
  • In Czech Republic
  • List of Countries
  • For 7 days
  • Water Temperature
  • Satellite Maps
  • Weather Map
  • Weather Widgets
  • user-avatar
    Login

    Hourly Weather Prutz

    Today, 23 March, Saturday

    Time Temperature Precipitation Wind Pressure Humidity
    00:00 +2°C° 0 mm 1 mps 638 mmHg 63%
    01:00 +2°C° 0 mm 1 mps 638 mmHg 61%
    02:00 +2°C° 0 mm 1 mps 637 mmHg 61%
    03:00 +1°C° 0 mm 1 mps 637 mmHg 61%
    04:00 +1°C° 0 mm 1 mps 637 mmHg 62%
    05:00 +1°C° 0 mm 1 mps 637 mmHg 62%
    06:00 +1°C° 0 mm 1 mps 637 mmHg 62%
    07:00 +2°C° 0 mm 1 mps 637 mmHg 63%
    08:00 +4°C° 0 mm 1 mps 638 mmHg 68%
    09:00 +6°C° 0 mm 1 mps 638 mmHg 73%
    10:00 +8°C° 0 mm 1 mps 639 mmHg 78%
    11:00 +9°C° 0 mm 1 mps 639 mmHg 77%
    12:00 +9°C° 0 mm 1 mps 639 mmHg 76%
    13:00 +9°C° 0 mm 1 mps 639 mmHg 75%
    14:00 +9°C° 0 mm 1 mps 638 mmHg 77%
    15:00 +9°C° 0 mm 1 mps 638 mmHg 79%
    16:00 +9°C° 0 mm 1 mps 638 mmHg 80%
    17:00 +7°C° 0 mm 1 mps 637 mmHg 82%
    18:00 +5°C° 0 mm 1 mps 636 mmHg 84%
    19:00 +2°C° 0 mm 0 mps 636 mmHg 86%
    20:00 +3°C° 0 mm 1 mps 636 mmHg 84%
    21:00 +2°C° 0 mm 1 mps 636 mmHg 82%
    22:00 +2°C° 0 mm 1 mps 637 mmHg 80%
    23:00 +2°C° 0 mm 1 mps 637 mmHg 76%

    Tomorrow, 24 March, Sunday

    Time Temperature Precipitation Wind Pressure Humidity
    00:00 +1°C° 0 mm 2 mps 637 mmHg 72%
    01:00 +1°C° 0 mm 2 mps 636 mmHg 69%
    02:00 +1°C° 0 mm 2 mps 636 mmHg 67%
    03:00 +1°C° 0 mm 2 mps 636 mmHg 64%
    04:00 +1°C° 0 mm 2 mps 636 mmHg 62%
    05:00 +1°C° 0 mm 2 mps 636 mmHg 62%
    06:00 +1°C° 0 mm 2 mps 636 mmHg 62%
    07:00 +1°C° 0 mm 2 mps 636 mmHg 62%
    08:00 +3°C° 0 mm 2 mps 636 mmHg 66%
    09:00 +6°C° 0 mm 1 mps 637 mmHg 70%
    10:00 +8°C° 0 mm 1 mps 637 mmHg 73%
    11:00 +9°C° 0 mm 1 mps 637 mmHg 73%
    12:00 +9°C° 0 mm 1 mps 637 mmHg 74%
    13:00 +9°C° 0 mm 1 mps 636 mmHg 74%
    14:00 +9°C° 0 mm 1 mps 636 mmHg 76%
    15:00 +9°C° 0 mm 1 mps 635 mmHg 78%
    16:00 +9°C° 0 mm 1 mps 635 mmHg 80%
    17:00 +7°C° 0 mm 1 mps 635 mmHg 85%
    18:00 +5°C° 0 mm 1 mps 634 mmHg 90%
    19:00 +3°C° 0 mm 1 mps 634 mmHg 95%
    20:00 +3°C° 0 mm 1 mps 634 mmHg 95%
    21:00 +3°C° 0 mm 1 mps 634 mmHg 95%
    22:00 +2°C° 0 mm 1 mps 634 mmHg 94%
    23:00 +2°C° 0 mm 1 mps 634 mmHg 94%

    Day after tomorrow, 25 March, Monday

    Time Temperature Precipitation Wind Pressure Humidity
    00:00 +2°C° 0 mm 1 mps 634 mmHg 94%
    01:00 +2°C° 0 mm 1 mps 634 mmHg 93%
    02:00 +2°C° 0 mm 1 mps 634 mmHg 93%
    03:00 +1°C° 0 mm 1 mps 633 mmHg 92%
    04:00 +1°C° 0 mm 1 mps 633 mmHg 92%
    05:00 +1°C° 0 mm 1 mps 633 mmHg 92%
    06:00 +2°C° 0 mm 1 mps 633 mmHg 92%
    07:00 +2°C° 0 mm 1 mps 633 mmHg 92%
    08:00 +2°C° 0.1 mm 2 mps 634 mmHg 89%
    09:00 +3°C° 0.1 mm 2 mps 634 mmHg 86%
    10:00 +4°C° 0.1 mm 2 mps 634 mmHg 84%
    11:00 +4°C° 0.2 mm 2 mps 634 mmHg 84%
    12:00 +3°C° 0.2 mm 3 mps 634 mmHg 85%
    13:00 +3°C° 0.2 mm 3 mps 633 mmHg 85%
    14:00 +3°C° 0.2 mm 3 mps 633 mmHg 86%
    15:00 +2°C° 0.2 mm 3 mps 633 mmHg 88%
    16:00 +2°C° 0.2 mm 3 mps 633 mmHg 89%
    17:00 0°C° 0.3 mm 3 mps 633 mmHg 91%
    18:00 -2°C° 0.3 mm 4 mps 633 mmHg 93%
    19:00 -3°C° 0.3 mm 4 mps 633 mmHg 95%
    20:00 -4°C° 0.3 mm 4 mps 633 mmHg 94%
    21:00 -5°C° 0.3 mm 4 mps 634 mmHg 94%
    22:00 -5°C° 0.3 mm 4 mps 635 mmHg 94%
    23:00 -6°C° 0.1 mm 3 mps 635 mmHg 93%

    26 March, Tuesday

    Time Temperature Precipitation Wind Pressure Humidity
    00:00 -7°C° 0.1 mm 3 mps 635 mmHg 93%
    01:00 -7°C° 0.1 mm 2 mps 635 mmHg 93%
    02:00 -7°C° 0 mm 2 mps 635 mmHg 91%
    03:00 -8°C° 0 mm 2 mps 635 mmHg 90%
    04:00 -8°C° 0 mm 1 mps 635 mmHg 89%
    05:00 -8°C° 0 mm 1 mps 635 mmHg 85%
    06:00 -8°C° 0 mm 1 mps 636 mmHg 81%
    07:00 -8°C° 0 mm 1 mps 636 mmHg 77%
    08:00 -7°C° 0 mm 2 mps 637 mmHg 67%
    09:00 -5°C° 0 mm 2 mps 638 mmHg 57%
    10:00 -2°C° 0 mm 2 mps 638 mmHg 47%
    11:00 -2°C° 0 mm 2 mps 638 mmHg 48%
    12:00 -1°C° 0 mm 2 mps 638 mmHg 49%
    13:00 +1°C° 0 mm 2 mps 638 mmHg 50%
    14:00 +1°C° 0 mm 2 mps 638 mmHg 51%
    15:00 +1°C° 0 mm 2 mps 638 mmHg 53%
    16:00 +1°C° 0 mm 2 mps 637 mmHg 55%
    17:00 -2°C° 0 mm 2 mps 637 mmHg 63%
    18:00 -2°C° 0 mm 1 mps 637 mmHg 71%
    19:00 -4°C° 0 mm 1 mps 637 mmHg 80%
    20:00 -4°C° 0 mm 1 mps 637 mmHg 79%
    21:00 -4°C° 0 mm 1 mps 638 mmHg 79%
    22:00 -6°C° 0 mm 1 mps 638 mmHg 79%
    23:00 -6°C° 0 mm 1 mps 638 mmHg 73%

    27 March, Wednesday

    Time Temperature Precipitation Wind Pressure Humidity
    00:00 -6°C° 0 mm 1 mps 638 mmHg 68%
    01:00 -6°C° 0 mm 1 mps 638 mmHg 62%
    02:00 -6°C° 0 mm 1 mps 637 mmHg 57%
    03:00 -6°C° 0 mm 1 mps 637 mmHg 52%
    04:00 -6°C° 0 mm 1 mps 637 mmHg 47%
    05:00 -4°C° 0 mm 1 mps 637 mmHg 45%
    06:00 -4°C° 0 mm 1 mps 638 mmHg 44%
    07:00 -3°C° 0 mm 1 mps 638 mmHg 43%
    08:00 -1°C° 0 mm 1 mps 638 mmHg 44%
    09:00 -1°C° 0 mm 2 mps 639 mmHg 44%
    10:00 +3°C° 0 mm 2 mps 639 mmHg 45%
    11:00 +3°C° 0 mm 2 mps 639 mmHg 50%
    12:00 +4°C° 0 mm 2 mps 639 mmHg 54%
    13:00 +4°C° 0 mm 2 mps 639 mmHg 59%
    14:00 +4°C° 0 mm 2 mps 639 mmHg 61%
    15:00 +4°C° 0 mm 2 mps 638 mmHg 63%
    16:00 +4°C° 0 mm 2 mps 638 mmHg 65%
    17:00 +2°C° 0 mm 2 mps 638 mmHg 71%
    18:00 +1°C° 0 mm 2 mps 638 mmHg 78%
    19:00 -2°C° 0 mm 2 mps 638 mmHg 85%
    20:00 0°C° 0.1 mm 1 mps 638 mmHg 87%
    21:00 -1°C° 0.1 mm 1 mps 638 mmHg 89%
    22:00 -1°C° 0.1 mm 1 mps 638 mmHg 91%
    23:00 -2°C° 0 mm 1 mps 638 mmHg 90%

    28 March, Thursday

    Time Temperature Precipitation Wind Pressure Humidity
    00:00 -2°C° 0 mm 1 mps 638 mmHg 89%
    01:00 -2°C° 0 mm 1 mps 638 mmHg 88%
    02:00 -2°C° 0 mm 1 mps 638 mmHg 87%
    03:00 -3°C° 0 mm 1 mps 638 mmHg 86%
    04:00 -3°C° 0 mm 1 mps 637 mmHg 85%
    05:00 -3°C° 0 mm 1 mps 638 mmHg 83%
    06:00 -2°C° 0 mm 1 mps 638 mmHg 82%
    07:00 -2°C° 0 mm 1 mps 638 mmHg 80%
    08:00 0°C° 0 mm 1 mps 638 mmHg 77%
    09:00 +2°C° 0 mm 1 mps 639 mmHg 74%
    10:00 +3°C° 0 mm 2 mps 639 mmHg 70%
    11:00 +3°C° 0 mm 2 mps 639 mmHg 71%
    12:00 +4°C° 0 mm 2 mps 639 mmHg 72%
    13:00 +4°C° 0 mm 2 mps 639 mmHg 73%
    14:00 +4°C° 0.1 mm 2 mps 639 mmHg 74%
    15:00 +4°C° 0.1 mm 2 mps 638 mmHg 76%
    16:00 +4°C° 0.1 mm 2 mps 638 mmHg 77%
    17:00 +2°C° 0.1 mm 2 mps 638 mmHg 82%
    18:00 +2°C° 0.1 mm 1 mps 638 mmHg 86%
    19:00 0°C° 0.1 mm 1 mps 638 mmHg 90%
    20:00 0°C° 0 mm 1 mps 638 mmHg 89%
    21:00 0°C° 0 mm 1 mps 638 mmHg 88%
    22:00 -3°C° 0 mm 2 mps 639 mmHg 87%
    23:00 -3°C° 0 mm 2 mps 639 mmHg 84%
    Show more